Regional Weather Roundup
Issued by NWS

Home | Current Version | Previous Version | Text Only | Print | Product List | Glossary Off
Versions: 1 2 3 4 5 6 7 8 9 10 11 12 13 14 15 16 17 18 19 20 21 22 23 24 25 26 27 28 29 30 31 32 33 34 35 36 37 38 39 40 41 42 43 44 45 46 47 48 49 50

000
ASUS45 KSLC 051110
RWRUT

UTAH REGIONAL WEATHER ROUNDUP
NATIONAL WEATHER SERVICE SALT LAKE CITY UT
400 AM MST THU MAR 05 2015

UTZ001>011-023>025-051200-

NORTHERN UTAH

CITY           SKY/WX    TMP DP  RH WIND       PRES   REMARKS
BRIGHAM CITY   CLEAR     24  19  79 CALM      30.38S
HILL AFB       PTCLDY    24  12  62 E13       30.36R WCI  12
LOGAN          CLEAR     21  16  81 SE3       30.36S
OGDEN          PTCLDY    24  15  68 S9        30.36R WCI  14
PROVO AIRPORT  PTCLDY    21  14  73 E5        30.38F WCI  15
SALT LAKE CITY PTCLDY    28  18  66 SE9       30.37R WCI  19
VERNAL         PTCLDY    17   9  70 W5        30.32S WCI  10
WENDOVER       CLEAR     25  16  68 NE6       30.34F WCI  18
HEBER CITY     PTCLDY    14  10  85 CALM      30.37R
WEST JORDAN    CLEAR     27  21  80 S7        30.36F WCI  19

$$

UTZ012>022-026-027-051200-

SOUTHERN/CENTRAL UTAH

CITY           SKY/WX    TMP DP  RH WIND       PRES   REMARKS
BLANDING       PTCLDY    18  13  80 N6        30.39R WCI  10
BRYCE CANYON   MOCLDY    -4  -8  83 W12       30.32S WCI -22
CEDAR CITY     PTCLDY    11   6  81 NE6       30.33S WCI   1
DELTA          CLEAR     24  20  85 NE7       30.37S WCI  16
HANKSVILLE     CLEAR     21  19  93 CALM      30.36S
MILFORD        CLEAR     20  15  81 SE5       30.36S WCI  13
MOAB/CYNLANDS  CLEAR     25  18  74 CALM      30.33R
PRICE          CLEAR     17   9  70 CALM      30.29S
ST GEORGE      MOSUNNY   36  23  60 CALM      30.37S
KANAB          CLEAR     27  14  59 NW16      30.37S WCI  14

$$

REGIONAL REPORTS     COLORADO/ARIZONA

CITY           SKY/WX    TMP DP  RH WIND       PRES   REMARKS
CRAIG, CO      PTCLDY     2  -3  80 W5        30.32S WCI  -8
GRAND JUNCTION CLEAR     21  11  65 E9        30.35S WCI  11
RIFLE          CLEAR     17   8  67 SE5       30.39R WCI  10
MONTROSE       PTCLDY    19  10  68 S8        30.38R WCI   9
CORTEZ         CLEAR     19  12  74 CALM      30.32S
PAGE, AZ       CLEAR     32  22  66 SE5       30.33R WCI  27
GRAND CANYON   PTCLDY     7   4  87 NE6       30.31S WCI  -3
KINGMAN        CLEAR     33  25  72 VRB5      30.27F WCI  29
FLAGSTAFF      PTCLDY    18  10  71 E3        30.28S

$$

REGIONAL REPORTS    NEVADA/IDAHO/WYOMING

CITY           SKY/WX    TMP DP  RH WIND       PRES   REMARKS
LAS VEGAS, NV  CLEAR     43  28  55 SW6       30.27S
ELY            CLEAR     13   9  84 S10       30.33F WCI   0
ELKO           CLEAR     18  11  74 E5        30.34S WCI  11
POCATELLO, ID  CLEAR     19  13  77 CALM      30.32F
EVANSTON, WY   PTCLDY    10   4  76 SW12      30.29R WCI  -5
ROCK SPRINGS   PTCLDY    16   6  65 W15G26    30.20S WCI   1

$$


USA.gov is the U.S. government's official web portal to all federal, state and local government web resources and services.